Regional Weather Roundup
Issued by NWS

Home | Current Version | Previous Version | Graphics & Text | Print | Product List | Glossary On
Versions: 1 2 3 4 5 6 7 8 9 10 11 12 13 14 15 16 17 18 19 20 21 22 23 24 25 26 27 28 29 30 31 32 33 34 35 36 37 38 39 40 41 42 43 44 45 46 47 48 49 50
000
ASUS43 KMKX 080611
RWRWI

WISCONSIN REGIONAL WEATHER ROUNDUP
NATIONAL WEATHER SERVICE MILWAUKEE/SULLIVAN WI
100 AM CDT WED JUL 08 2015

NOTE: "FAIR" INDICATES FEW OR NO CLOUDS BELOW 12,000 FEET WITH NO
SIGNIFICANT WEATHER AND/OR OBSTRUCTIONS TO VISIBILITY.

WIZ001-002-006>008-014>016-023>028-080700-
NORTHWEST WISCONSIN

CITY           SKY/WX    TMP DP  RH WIND       PRES   REMARKS
SUPERIOR ARPT  CLEAR     55  50  85 SW7       30.09S
6HR MIN TEMP:  52; 6HR MAX TEMP:  70;

ASHLAND        CLEAR     47  46  97 S5        30.11S
6HR MIN TEMP:  45; 6HR MAX TEMP:  69;

HAYWARD        CLEAR     48  46  93 CALM      30.12F
6HR MIN TEMP:  48; 6HR MAX TEMP:  69;

SIREN          CLEAR     49  47  92 CALM      30.12S
6HR MIN TEMP:  49; 6HR MAX TEMP:  69;

CUMBERLAND     CLEAR     52  48  87 CALM      30.13S
RICE LAKE      CLEAR     51  49  95 CALM      30.14S FOG
6HR MIN TEMP:  51; 6HR MAX TEMP:  68;

CHETEK         NOT AVBL
LADYSMITH      CLEAR     49  47  93 CALM      30.15S
6HR MIN TEMP:  49; 6HR MAX TEMP:  67;

EAU CLAIRE     PTCLDY    52  48  86 CALM      30.11F
6HR MIN TEMP:  52; 6HR MAX TEMP:  71;

MENOMONIE      PTCLDY    56  54  93 CALM      30.12S
6HR MIN TEMP:  55; 6HR MAX TEMP:  70;

NEW RICHMOND   PTCLDY    53  52  99 CALM      30.12S
6HR MIN TEMP:  53; 6HR MAX TEMP:  67;

OSCEOLA        PTCLDY    52  52 100 CALM      30.15S
6HR MIN TEMP:  52; 6HR MAX TEMP:  69;

$$

WIZ003>005-009-010-017-018-080700-
NORTH CENTRAL WISCONSIN

CITY           SKY/WX    TMP DP  RH WIND       PRES   REMARKS
MANITOWISH WTR PTCLDY    42  42 100 CALM      30.13S
6HR MIN TEMP:  42; 6HR MAX TEMP:  64;

ARBOR VITAE    CLEAR     47  44  92 CALM      30.13S
6HR MIN TEMP:  47; 6HR MAX TEMP:  64;

WOODRUFF       CLEAR     47  44  92 CALM      30.13S
6HR MIN TEMP:  47; 6HR MAX TEMP:  64;

RHINELANDER    CLEAR     46  43  89 CALM      30.15R
6HR MIN TEMP:  45; 6HR MAX TEMP:  65;

EAGLE RIVER    CLOUDY    43  43 100 CALM      30.13F FOG
LAND O LAKES   FOG       41  41 100 CALM      30.15R VSB 3/4
6HR MIN TEMP:  41; 6HR MAX TEMP:  64;

PHILLIPS       CLEAR     45  44  98 CALM      30.13S
6HR MIN TEMP:  45; 6HR MAX TEMP:  64;

TOMAHAWK       CLEAR     42  42  97 CALM      30.15R
6HR MIN TEMP:  42; 6HR MAX TEMP:  65;

MEDFORD        CLEAR     48  47  95 NE5       30.13F
6HR MIN TEMP:  48; 6HR MAX TEMP:  66;

MERRILL        CLEAR     44  44 100 CALM      30.14S
6HR MIN TEMP:  44; 6HR MAX TEMP:  66;

$$

WIZ029-030-035-036-043>047-080700-
CENTRAL WISCONSIN

CITY           SKY/WX    TMP DP  RH WIND       PRES   REMARKS
WAUSAU         CLEAR     52  49  89 NE3       30.11F
6HR MIN TEMP:  52; 6HR MAX TEMP:  69;

MOSINEE        CLEAR     52  48  87 NE5       30.13F
MARSHFIELD     CLEAR     53  48  83 CALM      30.12F
6HR MIN TEMP:  52; 6HR MAX TEMP:  69;

STEVENS POINT  CLEAR     48  47  97 CALM      30.13F
6HR MIN TEMP:  47; 6HR MAX TEMP:  66;

WAUPACA        CLEAR     52  51  97 CALM      30.13S
6HR MIN TEMP:  51; 6HR MAX TEMP:  71;

WAUTOMA        CLEAR     51  51 100 CALM      30.13S
6HR MIN TEMP:  50; 6HR MAX TEMP:  71;

WISC RAPIDS    CLEAR     53  48  83 CALM      30.13F
6HR MIN TEMP:  51; 6HR MAX TEMP:  69;

CAMP DOUGLAS   PTCLDY    50  50 100 CALM      30.11S
6HR MIN TEMP:  49; 6HR MAX TEMP:  68;

$$

WIZ011>013-019>022-031-037>040-048>050-080700-
NORTHEAST WISCONSIN

CITY           SKY/WX    TMP DP  RH WIND       PRES   REMARKS
ANTIGO         CLEAR     47  47  99 CALM      30.15R
SHAWANO        CLEAR     56  51  81 S5        30.13S
6HR MIN TEMP:  54; 6HR MAX TEMP:  69;

OCONTO         CLEAR     48  48 100 CALM      30.13S
6HR MIN TEMP:  48; 6HR MAX TEMP:  68;

STURGEON BAY   CLEAR     52  45  76 CALM      30.15S
6HR MIN TEMP:  50; 6HR MAX TEMP:  64;

GREEN BAY      CLEAR     52  50  93 CALM      30.14S
6HR MIN TEMP:  52; 6HR MAX TEMP:  69;

MANITOWOC      CLEAR     50  49  96 MISG      30.14S
6HR MIN TEMP:  50; 6HR MAX TEMP:  62;

APPLETON       CLEAR     54  50  87 S5        30.14S
CLINTONVILLE   CLEAR     52  50  93 CALM      30.13R
OSHKOSH        CLEAR     53  48  83 S3        30.13R
6HR MIN TEMP:  51; 6HR MAX TEMP:  69;

$$

WIZ032>034-041-042-053>061-080700-
SOUTHWEST WISCONSIN

CITY           SKY/WX    TMP DP  RH WIND       PRES   REMARKS
LA CROSSE      CLOUDY    61  55  81 CALM      30.10F
6HR MIN TEMP:  61; 6HR MAX TEMP:  70;

SPARTA         CLOUDY    56  54  91 CALM      30.12S
6HR MIN TEMP:  56; 6HR MAX TEMP:  70;

VIROQUA        MOCLDY    60  52  76 CALM      30.13R
6HR MIN TEMP:  59; 6HR MAX TEMP:  66;

BOSCOBEL       FAIR      54  52  93 CALM      30.12S
6HR MIN TEMP:  53; 6HR MAX TEMP:  69;

PRAIRIE DU CHI PTCLDY    54  50  88 CALM      30.12S
6HR MIN TEMP:  53; 6HR MAX TEMP:  68;

PLATTEVILLE    MOCLDY    57  50  77 E3        30.12S
6HR MIN TEMP:  54; 6HR MAX TEMP:  68;

$$

WIZ056-057-062-063-064-067-068-080700-
SOUTH CENTRAL WISCONSIN

CITY           SKY/WX    TMP DP  RH WIND       PRES   REMARKS
REEDSBURG      MOCLDY    59  56  91 CALM      30.11F
6HR MIN TEMP:  58; 6HR MAX TEMP:  68;

BARABOO/DELLS  PTCLDY    56  53  88 CALM      30.11F
6HR MIN TEMP:  56; 6HR MAX TEMP:  66;

LONE ROCK      PTCLDY    57  54  89 CALM      30.12S
6HR MIN TEMP:  56; 6HR MAX TEMP:  69;

MINERAL POINT  MOCLDY    55  50  82 CALM      30.12S
MADISON        PTCLDY    57  51  80 SE7       30.11S
6HR MIN TEMP:  56; 6HR MAX TEMP:  68;

MIDDLETON      PTCLDY    54  53  96 CALM      30.12S
6HR MIN TEMP:  54; 6HR MAX TEMP:  67;

WATERTOWN      PTCLDY    50  50 100 CALM      30.12S
6HR MIN TEMP:  49; 6HR MAX TEMP:  65;

MONROE         MOCLDY    55  50  82 S6        30.12S
JANESVILLE     MOCLDY    55  52  88 CALM      30.12S
$$

WIZ051-052-058>065-066-070>072-080700-
SOUTHEAST WISCONSIN

CITY           SKY/WX    TMP DP  RH WIND       PRES   REMARKS
MILWAUKEE      PTCLDY    55  46  71 CALM      30.12S
6HR MIN TEMP:  54; 6HR MAX TEMP:  60;

WAUKESHA       PTCLDY    50  45  81 CALM      30.14R
MILWAUKEE/TIMM CLEAR     52  45  76 CALM      30.13S
RACINE         PTCLDY    54  47  77 N5        30.13F
6HR MIN TEMP:  52; 6HR MAX TEMP:  60;

BURLINGTON     MOCLDY    47  46  99 CALM      30.13R
6HR MIN TEMP:  47; 6HR MAX TEMP:  62;

KENOSHA        MOCLDY    49  46  90 CALM      30.12S
6HR MIN TEMP:  49; 6HR MAX TEMP:  62;

FOND DU LAC    CLEAR     51  49  92 CALM      30.13S
6HR MIN TEMP:  51; 6HR MAX TEMP:  68;

SHEBOYGAN      CLEAR     49  47  93 CALM      30.13S
6HR MIN TEMP:  48; 6HR MAX TEMP:  61;

WEST BEND      CLEAR     48  45  87 CALM      30.12F
JUNEAU         CLEAR     53  48  84 CALM      30.13S
6HR MIN TEMP:  51; 6HR MAX TEMP:  66;

$$

LSZ147-162-080700-
LAKE SUPERIOR

STATION/POSITION TIME  TEMP    WIND        PRES    WAVE
                       AIR SEA DIR/SP/G            HT/PER
                 (UTC) (F)     (DEG/KT/KT) (MB)    (FT/S)
W MID LAKE BUOY  0550   49 41  210/  8/  8 1019.0F   0
DEVILS ISLAND    0600   62     180/  8/ 11 1018.8F
PORT WING        0500   57     140/  3/  5 1019.3
SAXON HARBOR     0500   53     190/  5/  8 1019.0S
$$

LMZ867-665-643>646-080700-
LAKE MICHIGAN

STATION/POSITION TIME  TEMP    WIND        PRES    WAVE
                       AIR SEA DIR/SP/G            HT/PER
                 (UTC) (F)     (DEG/KT/KT) (MB)    (FT/S)
CHAMBERS ISLAND  0500   53        CALM     1020.0R


USA.gov is the U.S. government's official web portal to all federal, state and local government web resources and services.